Simultaneous Nadir Overpasses (SNOs) Predictions

Prediction of SNOs between GOES-14 and NPP Satellite Orbit:

Table of predicted SNOs for the next 14.0 days since TLE Epoch: 6/22/2024
Index Date Time (GOES-14) GOES-14 Lat,Lon NPP Lat,Lon Distance(km) Time Diff (sec)
1 06/22/2024 08:42:33 -0.08,-108.55 0.19,-109.71 132.54 80
2 06/23/2024 08:26:31 -0.07,-108.54 -0.84,-105.19 382.62 80
3 06/24/2024 20:45:49 0.10,-108.51 -0.37,-110.50 227.53 80
4 06/25/2024 20:29:47 0.08,-108.51 0.67,-105.98 288.27 80
5 06/27/2024 08:48:58 -0.12,-108.53 0.47,-111.27 312.08 80
6 06/28/2024 08:32:55 -0.10,-108.52 -0.51,-106.74 203.31 80
7 06/29/2024 20:52:14 0.14,-108.48 -0.63,-112.06 407.71 80
8 06/30/2024 20:36:10 0.12,-108.48 0.35,-107.54 108.06 80
9 07/02/2024 08:55:22 -0.17,-108.51 0.77,-112.83 491.52 80
10 07/03/2024 08:39:18 -0.15,-108.50 -0.21,-108.30 23.60 80
11 07/05/2024 20:39:53 0.17,-108.44 0.01,-109.08 73.32 80
